Temp
89 81 78 84 88 88 86 83 80 85 90 84 83 84 89 90 90 88 90 90 90 91 94 94 95 95 88 86 85 84 84 81 79 75 78 77 80 82 82 82 83 86 87 88
84 78 87 91 91 88 87 83 80 86 91 86 83 83 89 92 90 90 90 92 91 93 93 92 93 94 92 89 86 84 82 80 80 80 79 81 82 82 84 86 83 87 86 89
80 86 92 89 87 84 85 81 81 81 87 88 84 79 85 92 92 93 94 94 95 93 93 92 92 93 93 87 86 84 82 80 81 80 78 79 80 79 83 83 85 87 88 88
86 92 89 87 84 87 79 89 87 83 79 72 86 69 82 88 87 90 92 93 95 96 96 94 93 93 93 89 88 85 84 81 82 79 78 78 76 77 82 82 84 85 86 87
83 87 85 83 85 90 83 90 87 85 80 78 78 74 80 89 85 87 91 94 96 97 97 96 94 93 95 92 90 87 84 80 82 80 80 80 76 76 83 84 82 81 84 86
87 96 92 89 92 91 91 86 85 84 79 68 77 76 77 84 87 91 95 95 96 98 98 97 97 95 94 93 91 88 82 81 82 80 80 79 78 80 80 79 82 83 84 86
84 86 92 92 84 90 87 80 67 66 67 66 82 78 80 89 93 94 94 97 98 99 99 98 95 93 93 91 89 87 82 80 81 82 81 81 81 81 80 81 82 83 84 85
76 74 86 92 86 82 83 82 71 60 66 71 83 74 82 94 97 98 99 100 101 101 101 99 97 94 91 91 89 87 82 80 81 81 80 81 81 84 83 83 84 84 85 84
77 79 93 93 93 89 82 77 87 77 79 72 78 83 91 95 94 96 97 99 99 100 101 99 99 96 92 92 89 87 82 82 82 83 81 80 81 82 83 84 85 86 86 86
84 75 89 90 93 92 86 90 76 77 62 60 72 75 78 85 88 92 94 96 98 100 99 100 99 97 95 94 92 90 85 83 83 84 83 83 83 82 84 84 83 84 85 86
89 83 81 89 83 81 83 79 81 81 77 67 66 73 88 87 90 91 95 97 99 99 98 98 98 97 96 94 93 90 87 84 84 84 83 83 83 84 83 84 84 84 85 85
90 85 75 80 91 93 89 84 84 73 69 75 73 74 95 93 94 95 95 97 99 97 98 99 98 96 95 92 93 91 89 87 86 85 83 83 83 84 84 82 84 84 83 84
89 80 71 74 84 90 84 86 87 86 84 73 70 75 92 93 93 95 95 96 94 97 95 97 97 93 93 92 92 91 91 89 89 86 85 84 84 84 84 83 83 84 83 82
83 81 75 70 76 84 79 84 85 84 74 75 77 80 87 88 89 93 95 95 96 95 95 95 94 93 92 89 88 89 90 91 88 88 86 84 84 85 85 85 83 84 83 82
85 73 77 80 82 83 82 82 83 79 80 74 78 79 85 85 88 92 93 94 95 94 94 93 93 90 89 88 88 89 90 89 90 86 86 84 84 85 84 84 84 83 84 84
85 71 75 73 80 80 77 82 83 82 82 81 81 80 90 92 93 92 93 94 93 91 94 94 93 92 90 89 87 88 88 88 88 86 86 84 84 83 84 84 84 83 83 84
79 75 70 65 76 76 70 77 79 81 83 82 75 82 90 88 90 91 88 88 88 92 92 93 93 92 91 91 89 87 88 88 86 85 85 84 83 83 83 84 84 83 82 83
75 72 71 65 69 57 76 85 84 81 83 85 84 86 87 88 91 91 91 88 87 89 91 93 93 92 90 92 92 90 89 87 85 84 84 84 83 83 83 83 83 83 83 81
80 73 66 61 62 68 74 79 79 75 74 85 84 86 87 88 90 80 87 89 89 90 91 92 95 94 91 89 90 87 87 86 85 84 84 84 85 83 83 82 82 82 80 80
78 75 66 63 56 54 70 81 86 82 65 82 83 82 84 83 71 72 84 88 89 91 92 90 94 94 92 91 91 86 86 85 84 84 84 85 84 83 82 81 80 81 80 78
66 67 62 63 60 66 78 83 84 60 63 80 82 80 79 75 76 80 85 86 89 91 91 92 93 91 89 90 90 85 84 83 83 83 84 83 83 81 76 73 72 73 74 72
65 62 59 62 58 55 76 77 65 71 80 81 80 79 77 78 80 81 83 84 86 88 90 91 90 88 89 89 87 84 77 74 75 75 73 72 72 70 70 70 70 71 70 71
62 68 60 63 63 73 77 75 77 76 78 79 79 80 79 78 79 80 80 82 85 85 88 90 90 85 86 87 86 78 72 73 73 72 70 69 68 68 68 69 69 70 71 70
70 74 65 65 71 73 74 75 77 77 74 69 75 77 80 77 79 79 81 82 83 84 84 89 88 83 81 82 82 78 74 72 72 70 68 68 67 67 66 64 64 65 65 66
69 69 66 66 71 73 75 77 76 74 70 66 61 75 78 79 78 79 79 79 81 82 78 85 83 82 80 79 79 76 73 73 72 70 69 69 68 67 61 59 59 57 53 54
72 67 64 63 70 68 71 75 76 73 70 63 63 74 79 79 77 79 77 79 79 79 81 81 80 79 76 77 76 75 75 75 73 72 72 72 71 69 67 61 57 51 51 50
MSLP
1004.21 1004.04 1002.98 1002.27 1001.63 1001.00 1000.44 1000.60 1000.92 1001.07 1001.15 1001.89 1001.98 1001.62 1001.21 1001.43 1002.15 1002.74 1002.90 1003.52 1004.40 1005.28 1005.97 1006.76 1007.48 1008.38 1009.86 1010.83 1011.71 1012.46 1013.07 1013.91 1014.87 1015.60 1015.92 1016.12 1015.94 1015.91 1015.93 1016.12 1016.07 1015.93 1015.92 1015.90
1003.36 1002.68 1002.21 1001.68 1001.07 1000.70 1000.29 1000.36 1000.82 1000.76 1000.62 1001.38 1001.37 1001.02 1000.57 1000.03 1000.82 1001.57 1002.28 1002.49 1003.25 1004.13 1005.07 1006.11 1007.02 1007.85 1008.92 1010.07 1011.14 1012.10 1012.95 1013.78 1014.45 1015.07 1015.57 1015.73 1015.69 1015.78 1015.66 1015.50 1015.72 1015.80 1015.84 1015.78
1002.28 1001.29 1000.92 1001.18 1000.83 1000.58 1000.35 1000.45 1000.36 1000.40 1000.45 1000.70 1000.83 1000.22 999.42 999.08 999.97 1000.53 1001.23 1001.81 1002.07 1002.81 1003.83 1005.16 1006.25 1007.13 1008.22 1009.53 1010.76 1011.73 1012.60 1013.47 1014.08 1014.63 1015.18 1015.57 1015.64 1015.79 1015.66 1015.77 1015.65 1015.62 1015.72 1015.86
1001.29 1000.86 1000.34 1000.33 1000.38 1000.25 1000.10 1000.19 1000.27 1000.40 1000.65 1000.45 1000.05 999.44 998.72 998.47 998.98 999.59 1000.07 1000.58 1000.99 1001.53 1002.71 1004.02 1005.26 1006.39 1007.37 1008.77 1010.10 1011.29 1012.15 1013.03 1013.68 1014.41 1014.75 1015.18 1015.40 1015.55 1015.53 1015.67 1015.70 1015.82 1015.81 1015.80
1000.48 1000.09 1000.16 1000.05 1000.02 999.93 1000.12 1000.34 1000.14 1000.22 1000.49 1000.42 1000.13 999.49 997.92 997.27 997.66 998.21 998.94 999.30 1000.08 1000.59 1001.52 1002.78 1004.13 1005.44 1006.48 1007.87 1009.28 1010.63 1011.79 1012.83 1013.24 1014.03 1014.39 1014.78 1015.31 1015.33 1015.20 1015.42 1015.57 1015.85 1015.74 1015.73
1000.19 999.65 999.52 999.60 999.62 999.94 1000.26 1000.34 1000.38 1000.62 1000.49 1000.00 999.28 998.67 997.15 995.89 996.65 997.03 997.43 998.07 998.97 999.62 1000.45 1001.57 1002.98 1004.48 1005.76 1007.04 1008.43 1009.86 1011.23 1012.17 1012.75 1013.50 1014.05 1014.29 1014.70 1014.84 1015.14 1015.42 1015.38 1015.55 1015.52 1015.56
999.79 999.38 999.42 999.72 999.79 999.69 999.97 1000.32 1000.22 999.91 999.40 998.43 997.44 997.05 996.14 996.14 996.34 996.65 997.03 997.37 997.86 998.61 999.52 1000.52 1001.96 1003.47 1004.88 1006.23 1007.58 1009.05 1010.54 1011.69 1012.34 1012.83 1013.42 1013.83 1014.13 1014.51 1014.62 1014.88 1015.03 1015.00 1015.03 1015.10
998.50 997.65 997.83 998.65 999.25 999.28 999.30 999.60 999.48 998.75 997.90 997.19 996.45 995.80 995.34 995.42 995.86 996.24 996.55 996.77 996.98 997.62 998.36 999.41 1000.73 1002.36 1003.96 1005.36 1006.79 1008.10 1009.77 1011.01 1011.88 1012.37 1012.89 1013.37 1013.92 1014.09 1014.34 1014.42 1014.54 1014.60 1014.63 1014.63
998.02 996.84 996.53 997.47 998.26 999.19 999.07 998.97 999.17 998.79 998.42 997.65 996.53 995.56 994.94 994.73 995.29 995.80 995.90 996.01 996.49 997.22 997.79 998.73 999.90 1001.33 1003.00 1004.41 1005.96 1007.25 1008.89 1010.19 1011.22 1011.71 1012.39 1012.94 1013.28 1013.53 1013.72 1013.75 1013.89 1014.09 1014.16 1014.26
998.22 997.51 996.91 997.33 997.93 998.37 998.65 998.77 998.58 998.48 998.43 998.00 996.98 995.82 995.03 994.83 995.30 995.93 996.07 995.99 996.41 996.97 997.84 998.78 999.35 1000.55 1002.24 1003.57 1005.19 1006.56 1008.11 1009.16 1010.19 1011.07 1011.75 1012.26 1012.67 1013.14 1013.36 1013.57 1013.79 1013.95 1014.05 1014.12
997.94 997.90 997.27 996.80 997.45 997.74 998.08 998.49 998.65 998.45 998.05 997.40 996.79 995.92 995.60 995.58 995.72 996.05 995.98 996.04 996.34 996.88 997.80 998.69 999.20 1000.05 1001.55 1003.07 1004.46 1005.90 1007.35 1008.60 1009.57 1010.41 1011.04 1011.56 1012.07 1012.57 1013.12 1013.36 1013.46 1013.72 1013.89 1014.09
997.57 997.67 997.47 997.14 996.60 997.04 997.32 997.25 997.33 997.53 997.95 997.95 997.29 996.23 995.32 995.13 995.49 995.96 996.20 996.28 996.52 997.14 997.90 998.45 999.17 999.97 1001.11 1002.52 1003.69 1005.12 1006.35 1007.65 1008.59 1009.45 1010.24 1010.95 1011.53 1012.05 1012.49 1012.91 1013.03 1013.21 1013.57 1013.94
997.65 997.81 997.76 997.43 996.98 996.33 996.39 996.66 996.92 997.11 997.00 996.76 996.61 995.82 995.60 995.92 995.93 996.02 996.03 996.08 996.60 997.27 997.95 998.53 999.05 999.93 1000.83 1002.12 1003.18 1004.42 1005.61 1006.73 1007.79 1008.60 1009.44 1010.22 1010.74 1011.29 1011.55 1012.02 1012.46 1012.72 1013.01 1013.39
999.17 998.94 998.38 997.54 996.84 996.10 996.20 995.98 996.47 996.78 996.95 996.54 996.01 995.61 995.35 995.66 995.96 995.92 996.04 996.48 996.90 997.29 997.75 998.52 999.08 999.87 1000.74 1001.82 1002.86 1003.89 1004.95 1005.97 1006.92 1007.74 1008.52 1009.07 1009.61 1010.06 1010.55 1010.89 1011.47 1011.90 1012.28 1012.73
999.82 999.45 999.45 998.42 997.69 997.23 996.98 996.69 996.58 996.78 996.94 996.68 996.27 996.15 996.09 995.86 997.21 996.55 996.63 996.53 996.95 997.37 997.84 998.52 999.19 1000.00 1000.86 1001.81 1002.72 1003.54 1004.45 1005.22 1006.09 1006.92 1007.55 1008.20 1008.83 1009.45 1010.03 1010.50 1010.79 1011.29 1011.63 1012.06
999.97 999.83 999.91 999.30 999.06 998.43 997.53 997.11 996.79 996.80 996.99 996.90 996.92 996.61 996.65 996.59 996.82 996.91 997.02 997.11 997.37 997.83 997.86 998.51 999.25 1000.00 1000.82 1001.60 1002.42 1003.21 1003.91 1004.65 1005.42 1006.20 1006.95 1007.76 1008.39 1008.89 1009.29 1009.72 1010.12 1010.49 1010.94 1011.31
999.71 1000.04 1000.27 999.67 999.64 998.97 997.85 997.75 997.35 997.19 997.25 997.23 996.96 996.95 996.92 996.87 997.04 997.09 997.49 998.07 998.13 998.36 998.46 998.49 999.15 999.80 1000.51 1001.35 1002.17 1002.88 1003.53 1004.36 1005.04 1005.84 1006.54 1007.27 1007.85 1008.38 1008.77 1009.09 1009.46 1009.90 1010.32 1010.76
1000.43 1000.66 1000.99 1000.51 1000.20 998.53 998.13 998.02 997.77 997.76 997.36 997.41 997.35 997.25 997.28 997.59 997.73 998.10 998.35 998.86 999.16 999.22 998.95 998.87 999.23 999.72 1000.24 1000.99 1001.87 1002.87 1003.55 1004.12 1004.84 1005.47 1006.07 1006.74 1007.30 1007.79 1008.23 1008.61 1008.98 1009.43 1009.90 1010.36
1001.19 1001.40 1001.35 1001.30 1000.75 999.61 998.91 998.66 998.32 998.32 998.39 998.06 997.87 997.68 997.98 998.51 998.46 999.76 999.95 999.94 999.87 999.71 999.72 999.56 999.59 999.96 1000.32 1000.89 1001.62 1002.59 1003.42 1004.17 1004.73 1005.29 1005.78 1006.29 1006.81 1007.33 1007.83 1008.25 1008.73 1009.09 1009.49 1009.93
1001.07 1001.41 1001.95 1001.98 1001.25 999.76 999.47 999.00 998.79 999.41 999.56 999.61 999.34 998.82 999.14 999.66 999.68 1001.63 1001.40 1000.97 1000.56 1000.28 1000.05 1000.12 1000.01 1000.12 1000.60 1001.10 1001.60 1002.51 1003.32 1004.10 1004.80 1005.33 1005.85 1006.44 1006.92 1007.36 1007.92 1008.26 1008.32 1008.80 1009.16 1009.92
1001.11 1001.42 1001.52 1001.40 1001.04 1000.27 1000.03 999.84 999.61 1000.27 1001.37 1000.64 1000.56 1000.74 1000.82 1001.07 1001.72 1002.10 1001.64 1001.54 1000.95 1000.61 1000.46 1000.59 1000.25 1000.52 1000.99 1001.56 1001.96 1002.82 1003.66 1004.48 1005.10 1005.65 1006.02 1006.59 1007.09 1007.47 1008.11 1008.85 1009.10 1009.33 1009.85 1010.48
1001.11 1001.45 1001.96 1002.13 1001.26 1001.18 1001.77 1000.96 1001.77 1001.67 1000.41 1000.97 1001.78 1002.19 1002.19 1002.29 1002.17 1002.07 1001.98 1001.94 1001.54 1001.08 1000.84 1000.87 1000.59 1000.97 1001.36 1001.84 1002.33 1003.23 1004.54 1005.57 1006.09 1006.67 1007.27 1007.68 1008.15 1008.77 1009.38 1009.77 1010.19 1010.51 1010.71 1011.02
1001.67 1001.81 1002.66 1002.51 1001.89 1002.07 1002.46 1002.49 1002.79 1002.89 1002.68 1002.57 1002.65 1002.70 1002.91 1002.79 1002.64 1002.74 1002.86 1002.64 1002.22 1002.00 1001.40 1001.31 1001.06 1001.51 1002.14 1002.45 1002.76 1003.93 1005.53 1006.17 1006.76 1007.27 1007.81 1008.38 1008.77 1009.43 1009.94 1010.66 1010.77 1011.11 1011.27 1011.49
1002.63 1002.63 1002.84 1002.89 1002.38 1002.52 1002.83 1003.45 1003.48 1003.81 1004.18 1004.51 1003.44 1003.73 1003.06 1002.81 1002.93 1003.01 1003.13 1003.01 1002.78 1002.40 1001.97 1001.48 1001.30 1001.84 1002.71 1003.32 1003.76 1004.33 1005.51 1006.32 1006.98 1007.46 1008.11 1008.73 1009.32 1009.94 1010.47 1010.99 1011.34 1011.63 1012.06 1012.02
1003.66 1003.39 1003.46 1003.14 1002.94 1002.85 1002.74 1002.93 1003.60 1004.16 1004.60 1005.11 1005.06 1005.14 1003.58 1003.26 1003.09 1003.18 1003.10 1003.21 1003.14 1002.77 1002.39 1001.67 1001.51 1002.17 1002.88 1003.55 1004.16 1005.00 1005.64 1006.09 1006.79 1007.46 1008.09 1008.74 1009.54 1010.10 1010.78 1011.47 1011.73 1012.62 1013.19 1013.27
1004.02 1003.73 1003.58 1003.09 1003.11 1003.04 1002.97 1003.04 1003.32 1003.98 1004.29 1004.88 1006.00 1004.80 1003.73 1003.39 1003.23 1003.20 1003.11 1003.05 1003.16 1003.00 1002.58 1002.04 1001.94 1002.45 1003.04 1003.46 1004.23 1005.11 1005.70 1005.93 1006.51 1007.20 1007.92 1008.56 1009.26 1010.05 1010.70 1011.62 1012.51 1012.60 1012.61 1012.94
Wind_Speed
16 14 15 18 17 17 16 8 11 9 3 1 10 9 11 17 14 12 11 14 16 16 14 15 14 14 22 17 14 13 12 13 11 6 6 5 5 4 4 5 6 8 4 5
15 16 18 17 16 17 12 13 9 10 7 3 10 14 15 11 18 17 14 13 16 17 17 16 15 17 17 14 14 15 15 13 11 9 7 7 6 4 5 4 8 8 5 4
17 18 20 16 16 16 14 10 13 12 6 6 14 18 18 13 13 15 16 15 14 19 18 18 16 17 17 17 15 12 14 15 12 10 6 5 3 3 5 2 4 3 4 4
16 18 18 9 14 17 13 12 14 11 11 10 13 12 8 10 15 16 15 16 15 17 18 18 19 17 18 18 16 15 12 14 12 11 9 9 5 7 5 5 4 5 7 4
15 16 14 17 13 15 11 14 16 11 12 12 15 9 14 12 16 19 18 18 17 15 19 19 20 18 16 19 17 15 14 15 12 13 10 9 7 5 6 5 7 9 7 7
14 17 9 12 14 13 14 10 10 12 12 12 16 14 14 9 9 4 12 19 17 17 17 19 20 19 16 17 18 17 15 13 12 14 13 12 13 9 9 8 7 7 6 7
17 17 16 8 13 11 14 12 10 11 10 13 18 16 12 11 8 7 8 9 17 15 16 16 20 19 18 18 19 17 18 15 14 16 14 13 11 10 5 6 6 7 7 7
14 13 23 18 16 14 13 14 12 14 10 9 3 4 4 4 4 1 4 8 10 14 17 17 20 20 19 18 19 19 19 17 16 16 15 11 11 9 9 9 8 6 6 4
16 14 9 15 15 14 15 11 14 17 16 13 13 7 12 13 10 2 8 12 11 10 5 16 18 20 20 19 19 19 20 18 17 16 14 13 12 11 10 7 6 3 4 4
19 15 5 7 6 12 16 13 11 11 10 13 12 13 4 9 9 6 4 2 8 10 7 4 15 19 19 19 18 18 20 20 19 16 14 14 13 13 9 8 6 6 5 4
15 16 15 11 9 14 10 11 12 15 11 11 10 4 7 4 5 5 4 2 7 7 9 6 8 16 19 18 18 18 19 18 17 16 15 14 14 13 11 8 9 8 6 5
15 12 13 19 12 15 14 15 15 9 14 10 13 10 11 9 10 3 4 5 5 8 5 4 8 14 18 19 18 18 17 18 17 17 14 14 13 13 13 12 11 9 8 6
7 9 13 17 17 17 16 16 18 14 15 12 11 11 9 9 3 5 6 3 7 7 8 7 9 13 16 18 16 18 17 16 17 15 15 15 14 14 13 14 13 11 10 10
3 12 17 14 16 11 17 15 13 13 12 14 13 14 8 6 9 10 3 8 3 6 6 6 9 12 13 15 15 13 16 16 16 16 17 16 17 16 15 13 14 13 11 11
8 16 19 23 21 21 20 17 12 13 14 15 14 15 12 10 10 10 9 8 4 7 5 6 8 9 10 12 13 12 15 15 15 15 16 16 14 13 11 11 10 12 10 11
11 16 18 20 21 23 24 23 20 16 16 16 17 19 17 15 12 10 10 7 1 7 7 6 9 11 12 12 13 13 12 14 14 13 14 13 12 12 12 11 12 11 11 10
12 10 13 19 20 22 24 21 21 20 21 19 19 18 15 14 12 9 12 13 12 6 8 7 9 11 13 11 12 12 11 12 11 11 11 11 12 13 12 11 11 12 12 11
12 11 11 13 15 23 13 16 17 20 18 16 17 14 9 11 10 12 12 11 8 9 9 3 5 5 11 14 12 10 11 8 10 10 10 11 13 13 12 12 12 11 10 10
17 12 12 13 16 23 20 15 14 15 16 14 15 12 7 13 7 16 15 10 7 5 6 8 4 5 6 11 10 12 10 10 8 11 10 10 9 11 12 12 11 9 9 8
18 15 11 12 18 24 13 16 12 13 13 20 12 6 7 7 3 7 11 11 10 10 2 7 7 6 6 6 8 11 10 10 9 8 8 7 8 8 10 11 11 6 6 8
7 8 14 14 17 20 14 17 18 7 11 9 8 10 8 5 7 8 10 11 12 11 7 5 7 4 6 6 8 9 9 8 4 3 3 5 3 2 7 8 4 6 8 5
14 11 12 16 12 20 16 8 4 11 1 3 3 2 3 5 7 9 11 11 13 12 8 4 6 6 7 6 8 9 10 8 7 8 9 10 10 8 7 8 4 5 6 5
11 8 7 8 9 13 12 12 10 18 7 3 3 4 1 1 4 8 10 11 11 15 9 3 8 8 4 2 7 12 10 9 8 10 10 10 9 8 7 4 7 4 4 3
11 9 7 11 11 9 12 10 9 11 10 17 5 12 3 2 5 5 7 10 9 11 13 6 10 11 7 6 5 11 12 10 9 10 10 9 9 8 7 5 4 5 4 3
10 11 11 15 14 13 16 11 5 6 9 11 17 18 8 7 7 9 8 5 8 10 9 5 4 5 6 9 9 12 11 11 11 10 10 10 9 9 8 5 7 5 3 3
12 13 11 13 13 11 10 10 8 11 12 9 9 24 12 11 10 9 11 7 7 8 12 10 7 6 5 8 10 11 12 12 13 13 10 9 9 9 8 7 7 11 9 8
Wind_Direction
208 233 233 235 229 268 299 331 318 313 257 111 281 290 278 171 183 210 201 189 180 181 191 161 184 176 146 162 166 178 177 154 150 159 172 200 203 191 195 172 223 200 213 212
233 221 244 246 259 263 259 269 260 254 235 296 284 292 277 241 179 192 207 213 183 182 179 166 182 172 169 164 166 169 176 167 167 169 188 202 194 180 218 207 153 203 206 188
232 241 212 236 261 250 259 281 282 298 305 300 272 262 255 216 177 190 195 215 195 184 186 171 178 182 171 164 167 178 160 168 179 175 194 199 197 188 197 188 162 222 261 198
243 237 272 229 248 261 261 242 250 258 274 281 311 309 305 178 179 188 199 199 212 196 182 172 176 190 180 165 167 171 176 169 176 176 195 202 196 175 186 214 168 205 237 226
239 235 247 254 245 269 246 273 286 292 282 277 268 262 271 221 197 190 191 201 201 203 186 181 179 181 187 164 167 167 174 169 179 181 203 184 187 211 178 209 176 209 190 219
253 269 250 254 261 234 270 282 277 264 258 262 252 245 266 251 179 134 200 187 192 200 194 180 174 172 184 166 166 164 169 182 180 181 202 193 188 207 181 206 189 195 215 204
252 237 250 226 265 251 231 239 256 253 228 242 240 228 228 133 149 178 191 198 185 189 187 182 174 173 175 168 167 162 167 182 193 183 193 191 191 207 221 196 212 216 209 197
225 231 211 214 214 256 211 240 245 253 263 330 295 250 241 149 95 36 224 226 211 185 185 183 176 171 172 171 169 165 168 179 191 188 191 191 207 198 214 213 214 214 206 209
270 270 122 197 202 215 254 224 258 279 287 286 288 285 170 190 148 209 230 222 214 202 192 170 175 172 170 172 170 169 168 175 187 189 189 195 197 213 206 228 210 244 240 174
258 277 233 180 205 218 229 268 245 229 258 271 281 293 317 125 113 77 281 189 211 140 127 247 179 170 169 170 168 169 168 177 182 193 193 193 198 204 220 214 239 209 254 261
228 261 275 211 184 246 193 233 253 277 288 290 266 286 70 108 142 218 283 195 197 158 149 191 188 171 164 168 164 173 168 177 180 193 189 195 197 199 209 229 207 229 235 214
207 253 242 260 247 199 248 263 224 215 231 254 289 294 211 156 145 104 319 289 301 122 136 218 201 169 165 168 169 175 175 179 183 189 187 195 190 199 198 210 226 208 213 231
273 237 251 265 269 239 228 227 237 274 282 247 253 253 74 10 67 218 258 177 136 157 165 249 189 171 169 170 175 175 180 182 182 187 189 188 192 196 204 198 209 216 204 210
336 274 275 257 243 272 325 222 285 243 266 273 262 273 283 192 188 265 243 92 64 175 158 232 193 175 172 169 175 174 180 182 182 188 188 189 194 196 202 204 197 207 201 203
257 253 264 277 291 294 292 275 264 241 261 267 295 314 308 359 347 346 345 37 200 206 173 208 190 168 164 163 174 179 179 181 186 185 188 195 194 198 198 202 197 197 204 204
231 253 263 269 273 274 274 277 277 270 269 274 270 275 288 303 315 316 299 291 314 17 143 188 183 167 174 172 177 181 178 188 186 185 194 184 187 194 199 198 202 193 202 206
227 236 245 256 256 258 255 264 277 281 280 280 271 279 284 280 293 300 47 42 31 28 333 164 189 181 178 187 176 185 186 183 186 187 181 181 188 198 201 202 200 203 199 204
283 279 277 277 282 259 271 284 293 291 288 289 289 292 296 306 305 21 67 61 39 355 344 302 180 195 176 181 185 185 190 188 186 190 185 186 193 197 199 203 203 197 200 203
262 269 264 262 260 273 265 268 280 299 316 302 301 271 322 313 297 49 31 17 342 356 327 310 225 191 167 175 177 176 185 193 190 195 194 195 194 193 199 202 201 202 202 201
244 242 245 247 259 263 277 285 321 330 283 297 342 348 309 0 60 18 2 352 343 322 347 313 260 191 161 161 164 167 180 182 194 192 194 192 190 208 200 198 196 183 179 164
237 251 255 244 243 257 276 277 291 171 265 347 14 24 53 20 20 346 351 344 330 322 327 260 255 181 159 184 169 171 172 174 125 111 174 179 197 182 99 98 86 128 106 115
264 240 220 256 266 270 20 339 2 351 317 178 80 47 36 7 351 348 352 337 328 321 311 248 240 158 155 166 163 163 108 101 103 103 101 99 95 90 89 93 87 91 120 130
269 304 334 261 283 325 302 301 343 2 315 330 250 134 184 200 358 355 333 321 320 327 308 234 255 129 146 136 164 129 136 132 131 123 115 102 92 92 97 122 132 133 145 155
297 315 271 310 301 305 335 332 351 316 332 339 20 337 245 312 312 302 300 318 323 313 317 248 241 141 169 165 188 122 144 146 146 136 128 122 114 110 99 75 15 35 355 289
291 299 290 280 271 259 270 271 259 302 17 351 340 300 285 281 273 294 298 295 303 302 298 278 151 154 179 167 171 144 152 157 151 139 139 136 133 135 117 111 115 106 61 1
278 284 281 287 325 317 306 298 264 216 199 189 262 276 288 288 285 276 285 271 276 291 300 306 158 165 218 141 143 155 164 163 151 148 152 151 148 152 137 129 99 41 102 102